www.pogodaiklimat.ru

Погода и климат >> Архив погоды >> Австралия >> Bourke Airport Aws


ПОГОДА в Bourke Airport Aws

  • Прогноз погоды в Bourke Airport Aws
  • Монитор погоды в Bourke Airport Aws
  • Климат города

АРХИВ ПОГОДЫ в Bourke Airport Aws

Время (UTC), дата Ветер
(напр.,м/с)
 
Видим.   Явления Облачность Т
(С)
Тd
(С)
f
(%)
Тe
(С)
Тes
(С)
Комфортность P
(гПа)
Po
(гПа)
Тmin
(С)
Tmax
(С)
R
(мм)
R24
(мм)
S
(см)
19 18.04 ЮВ 2 н/о н/о +18.6 +7.7 49 +19 +19 1015.9 1003.3
20 18.04 ЮВ 3 н/о н/о +17.7 +7.7 52 +18 +18 1016.2 1003.6
21 18.04 В 4 н/о н/о +18.9 +10.5 58 +20 +20 1016.5 1003.9
22 18.04 СВ 6 н/о н/о +23.1 +13.0 53 +26 +26 жарко 1017.0 1004.4
23 18.04 СВ 8 н/о н/о +25.8 +13.6 47 +28 +28 жарко 1017.3 1004.7
00 19.04 С 7 н/о н/о +27.9 +13.8 42 +30 +30 жарко 1017.1 1004.5
01 19.04 С 6 н/о н/о +30.4 +13.7 36 +32 +32 жарко 1016.4 1003.8
02 19.04 С 5 н/о н/о +31.9 +13.6 33 +33 +33 жарко 1015.6 1003.0 +17.5
03 19.04 СЗ 4 н/о н/о +32.0 +12.3 30 +32 +32 жарко 1014.5 1001.9
04 19.04 С 4 н/о н/о +32.8 +12.4 29 +33 +33 жарко 1013.8 1001.2
05 19.04 СЗ 3 н/о н/о +32.1 +11.8 29 +32 +32 жарко 1013.0 1000.5
06 19.04 Ю 5 н/о н/о +25.9 +18.8 65 +31 +31 очень
душно
1012.7 1000.2
07 19.04 Ю 2 н/о н/о +29.4 +15.5 43 +32 +32 душно 1012.7 1000.2
08 19.04 В 9 н/о {туман} н/о +22.4 +17.3 73 +27 +27 душно 1014.5 1001.9
09 19.04 В 7 н/о н/о +21.5 +16.0 71 +25 +25 комфорт 1015.6 1003.0
10 19.04 СВ 7 н/о н/о +21.4 +15.9 71 +25 +25 комфорт 1016.9 1004.3
11 19.04 СВ 8 н/о {туман} н/о +20.5 +15.9 75 +23 +23 комфорт 1017.5 1004.9
12 19.04 СВ 5 н/о н/о +19.9 +16.2 79 +22 +22 комфорт 1017.8 1005.2
13 19.04 СВ 3 н/о н/о +19.0 +15.5 80 +20 +20 1017.9 1005.3
14 19.04 СВ 4 н/о н/о +18.8 +15.9 83 +20 +20 1017.7 1005.1 +33.7
15 19.04 В 2 н/о н/о +17.5 +15.3 87 +18 +18 1017.5 1004.9
16 19.04 В 2 н/о н/о +16.6 +15.0 90 +17 +17 1017.2 1004.6
17 19.04 ЮВ 3 н/о н/о +16.2 +14.6 90 +16 +16 1016.8 1004.2
18 19.04 ЮВ 2 н/о н/о +15.4 +13.8 90 +15 +15 1016.7 1004.1
19 19.04 ЮВ 2 н/о н/о +15.2 +13.9 92 +15 +15 1016.9 1004.3
20 19.04 В 1 н/о н/о +14.6 +13.5 93 +15 +15 1017.5 1004.9
21 19.04 штиль 0 н/о н/о +14.4 +13.4 94 +14 +14 1018.3 1005.7
22 19.04 В 4 н/о н/о +18.0 +15.8 87 +18 +18 1019.4 1006.8
23 19.04 В 5 н/о н/о +20.9 +16.1 74 +24 +24 комфорт 1020.1 1007.5
00 20.04 В 4 н/о н/о +23.1 +16.2 65 +28 +28 душно 1019.7 1007.1
01 20.04 СВ 4 н/о н/о +24.4 +15.1 56 +27 +27 жарко 1019.1 1006.5
02 20.04 СВ 4 н/о н/о +26.5 +14.9 49 +29 +29 жарко 1018.3 1005.7 +13.8
03 20.04 ЮВ 3 н/о н/о +27.3 +13.6 43 +29 +29 жарко 1017.2 1004.6
04 20.04 В 4 н/о н/о +28.1 +12.8 39 +30 +30 жарко 1016.4 1003.8
05 20.04 В 4 н/о н/о +28.9 +13.2 38 +30 +30 жарко 1016.0 1003.4
06 20.04 В 4 н/о н/о +28.7 +13.0 38 +30 +30 жарко 1016.1 1003.5
07 20.04 СВ 3 н/о н/о +28.2 +12.9 39 +30 +30 жарко 1016.1 1003.5
08 20.04 СВ 3 н/о н/о +26.1 +13.2 45 +28 +28 жарко 1016.4 1003.8
09 20.04 СВ 3 н/о н/о +23.2 +12.5 51 +26 +26 жарко 1017.0 1004.4
10 20.04 СВ 3 н/о н/о +22.1 +12.4 54 +25 +25 комфорт 1017.5 1004.9
11 20.04 СВ 3 н/о н/о +21.1 +12.5 58 +23 +23 комфорт 1017.9 1005.3
12 20.04 В 3 н/о н/о +20.4 +12.6 61 +23 +23 комфорт 1018.0 1005.4
13 20.04 В 2 н/о н/о +19.1 +12.4 65 +21 +21 комфорт 1018.2 1005.6
14 20.04 штиль 0 н/о н/о +17.9 +11.5 66 +18 +18 1018.3 1005.7 +29.7
15 20.04 штиль 0 н/о н/о +16.8 +11.7 72 +17 +17 1017.9 1005.3
16 20.04 штиль 0 н/о н/о +15.9 +10.9 72 +16 +16 1017.7 1005.1
17 20.04 штиль 0 н/о н/о +15.8 +12.4 80 +16 +16 1017.6 1005.0
18 20.04 ЮВ 2 н/о н/о +15.0 +11.8 81 +15 +15 1017.7 1005.1
19 20.04 ЮВ 1 н/о н/о +14.7 +11.5 81 +16 +16 1018.0 1005.4
20 20.04 Ю 2 н/о н/о +15.1 +12.6 85 +15 +15 1018.5 1005.9
21 20.04 ЮВ 3 н/о н/о +15.7 +12.6 82 +15 +15 1019.0 1006.4
22 20.04 ЮВ 2 н/о н/о +19.5 +13.2 67 +22 +22 комфорт 1019.7 1007.1
23 20.04 В 3 н/о н/о +23.6 +14.0 55 +26 +26 жарко 1020.1 1007.5
00 21.04 В 3 н/о н/о +25.8 +12.6 44 +28 +28 жарко 1020.2 1007.6
01 21.04 В 2 н/о н/о +27.9 +13.1 40 +30 +30 жарко 1019.8 1007.2
02 21.04 С 3 н/о н/о +29.1 +11.2 33 +30 +30 жарко 1018.9 1006.3 +13.8
03 21.04 ЮВ 3 н/о н/о +29.0 +9.7 30 +29 +29 жарко 1017.8 1005.2
04 21.04 В 3 н/о н/о +30.0 +9.5 28 +30 +30 жарко 1017.1 1004.5
05 21.04 ЮВ 3 н/о н/о +30.5 +9.4 27 +30 +30 жарко 1016.6 1004.0
06 21.04 СВ 4 н/о н/о +30.2 +9.1 27 +30 +30 жарко 1016.2 1003.6
07 21.04 В 7 н/о н/о +28.9 +9.6 30 +29 +29 жарко 1016.2 1003.6
08 21.04 СВ 4 н/о в посл. час дождь {туман} н/о +23.0 +15.1 61 +27 +27 душно 1017.1 1004.5
09 21.04 СВ 2 н/о н/о +22.2 +16.2 69 +26 +26 душно 1017.5 1004.9
10 21.04 СВ 1 н/о н/о +21.9 +16.6 72 +26 +26 душно 1017.9 1005.3
11 21.04 ЮЗ 3 н/о {туман} н/о +21.7 +16.2 71 +25 +25 комфорт 1018.4 1005.8
12 21.04 ЮЗ 3 н/о н/о +20.5 +14.8 70 +24 +24 комфорт 1018.6 1006.0
13 21.04 ЮЗ 1 н/о н/о +19.1 +13.1 68 +21 +21 комфорт 1018.5 1005.9
14 21.04 ЮВ 1 н/о н/о +18.2 +13.9 76 +20 +20 1018.3 1005.7 +31.4
15 21.04 ЮВ 3 н/о н/о +18.4 +13.3 72 +19 +19 1018.2 1005.6
16 21.04 ЮВ 3 н/о н/о +19.0 +12.7 67 +20 +20 1018.0 1005.4
17 21.04 штиль 0 н/о н/о +18.1 +11.7 66 +18 +18 1017.8 1005.2
18 21.04 В 2 н/о н/о +16.5 +11.6 73 +17 +17 1017.9 1005.3
19 21.04 В 3 н/о н/о +17.4 +11.2 67 +17 +17 1018.2 1005.6
20 21.04 В 4 н/о н/о +17.6 +11.2 66 +17 +17 1018.6 1006.0
21 21.04 В 4 н/о н/о +17.3 +11.3 68 +17 +17 1019.2 1006.6
22 21.04 В 3 н/о н/о +20.0 +11.8 59 +22 +22 комфорт 1019.9 1007.3
23 21.04 В 4 н/о н/о +21.9 +12.5 55 +24 +24 комфорт 1020.3 1007.7
00 22.04 В 4 н/о н/о +23.3 +12.0 49 +26 +26 жарко 1020.2 1007.6
01 22.04 ЮВ 2 н/о н/о +26.0 +11.7 41 +27 +27 жарко 1019.9 1007.3
02 22.04 В 3 н/о н/о +27.9 +10.6 34 +28 +28 жарко 1019.3 1006.7 +16.5
03 22.04 ЮВ 3 н/о н/о +29.1 +9.3 29 +29 +29 жарко 1018.4 1005.8
04 22.04 В 3 н/о н/о +30.1 +8.5 26 +29 +29 жарко 1017.6 1005.0
05 22.04 ЮВ 4 н/о н/о +30.1 +7.3 24 +29 +29 жарко 1017.2 1004.6
06 22.04 СВ 4 н/о н/о +30.0 +7.8 25 +29 +29 жарко 1016.7 1004.1
07 22.04 В 3 н/о н/о +29.2 +7.7 26 +28 +28 жарко 1016.9 1004.3
08 22.04 В 5 н/о туман местами н/о +20.2 +15.8 76 +23 +23 комфорт 1017.8 1005.2
09 22.04 С 2 н/о н/о +20.1 +17.5 85 +24 +24 комфорт 1018.2 1005.6
10 22.04 штиль 0 н/о н/о +19.9 +17.9 88 +23 +23 комфорт 1018.7 1006.1
11 22.04 штиль 0 н/о {туман} н/о +19.0 +17.1 89 +20 +20 1019.0 1006.4
12 22.04 ЮВ 1 н/о н/о +18.5 +16.7 89 +20 +20 1019.2 1006.6
13 22.04 ЮВ 2 н/о н/о +17.9 +15.5 86 +19 +19 1018.8 1006.2
14 22.04 Ю 2 н/о н/о +17.9 +14.6 81 +19 +19 1018.6 1006.0 +30.7
15 22.04 ЮВ 2 н/о н/о +17.4 +13.7 79 +18 +18 1018.4 1005.8
16 22.04 ЮВ 3 н/о н/о +16.9 +13.0 78 +17 +17 1018.2 1005.6
17 22.04 ЮВ 3 н/о н/о +16.1 +12.8 81 +16 +16 1017.9 1005.3
18 22.04 Ю 2 н/о н/о +15.3 +13.0 86 +15 +15 1017.7 1005.1
19 22.04 Ю 2 н/о н/о +14.8 +12.5 86 +15 +15 1017.9 1005.3
20 22.04 ЮВ 2 н/о н/о +14.0 +11.7 86 +14 +14 1018.2 1005.6
21 22.04 ЮВ 2 н/о н/о +13.9 +11.6 86 +13 +13 1018.8 1006.2
22 22.04 ЮВ 2 н/о н/о +16.6 +11.7 73 +17 +17 1019.6 1007.0
23 22.04 ЮВ 2 н/о н/о +19.5 +12.3 63 +21 +21 комфорт 1020.0 1007.4
00 23.04 В 3 н/о н/о +22.4 +12.6 54 +25 +25 комфорт 1019.8 1007.2
01 23.04 В 2 н/о н/о +25.1 +10.9 41 +26 +26 жарко 1019.4 1006.8
02 23.04 ЮВ 2 н/о {туман} н/о +26.4 +9.7 35 +27 +27 жарко 1018.6 1006.0 +13.7
03 23.04 ЮВ 3 н/о н/о +28.4 +9.6 31 +28 +28 жарко 1017.5 1004.9
04 23.04 Ю 5 н/о н/о +27.5 +6.8 27 +27 +27 жарко 1017.0 1004.4
05 23.04 Ю 3 н/о {туман} н/о +29.4 +6.7 24 +28 +28 жарко 1016.7 1004.1
06 23.04 Ю 4 н/о н/о +28.9 +5.7 23 +28 +28 жарко 1016.5 1003.9
07 23.04 ЮВ 4 н/о н/о +28.3 +6.4 25 +27 +27 жарко 1016.6 1004.0
08 23.04 ЮВ 3 н/о н/о +25.4 +7.5 32 +25 +25 комфорт 1017.1 1004.5
09 23.04 В 2 н/о н/о +22.2 +10.4 47 +24 +24 комфорт 1017.5 1004.9
10 23.04 штиль 0 н/о н/о +19.8 +12.8 64 +21 +21 комфорт 1017.8 1005.2
11 23.04 штиль 0 н/о н/о +18.1 +11.4 65 +18 +18 1018.1 1005.5
12 23.04 В 3 н/о н/о +17.0 +11.7 71 +17 +17 1018.4 1005.8
13 23.04 ЮВ 2 н/о н/о +16.7 +10.5 67 +17 +17 1018.2 1005.6
14 23.04 штиль 0 н/о н/о +15.6 +11.4 76 +15 +15 1017.9 1005.3 +29.6
15 23.04 штиль 0 н/о н/о +14.1 +11.3 83 +14 +14 1017.2 1004.6
16 23.04 штиль 0 н/о н/о +13.6 +11.0 84 +13 +13 1016.9 1004.3
17 23.04 ЮЗ 1 н/о н/о +13.1 +9.9 81 +13 +13 1016.5 1003.9
18 23.04 Ю 2 н/о н/о +12.5 +9.0 79 +12 +12 1016.5 1003.9
19 23.04 ЮВ 3 н/о н/о +13.5 +7.9 69 +13 +13 1016.9 1004.3
20 23.04 Ю 2 н/о н/о +12.0 +8.1 77 +11 +11 1017.5 1004.9
21 23.04 Ю 2 н/о н/о +13.1 +7.3 68 +12 +12 1018.2 1005.6
22 23.04 Ю 2 н/о н/о +16.9 +7.8 55 +17 +17 1018.9 1006.3
23 23.04 ЮВ 2 н/о н/о +20.1 +7.1 43 +22 +22 комфорт 1019.4 1006.8
00 24.04 В 2 н/о н/о +23.7 +7.8 36 +24 +24 комфорт 1019.1 1006.5
01 24.04 З 1 н/о н/о +26.2 +7.3 30 +26 +26 жарко 1018.5 1005.9
02 24.04 Ю 2 н/о н/о +28.3 +4.6 22 +27 +27 жарко 1017.6 1005.0 +11.9
03 24.04 ЮВ 4 н/о н/о +28.1 +5.6 24 +27 +27 жарко 1016.6 1004.0
04 24.04 Ю 4 н/о н/о +29.2 +3.2 19 +27 +27 жарко 1015.4 1002.8
05 24.04 ЮВ 4 н/о н/о +29.4 +1.8 17 +27 +27 жарко 1014.9 1002.3
06 24.04 Ю 6 н/о н/о +29.7 +0.3 15 +27 +27 жарко 1015.0 1002.4
07 24.04 ЮВ 4 н/о н/о +29.0 -0.2 15 +26 +26 жарко 1015.0 1002.4
08 24.04 Ю 3 н/о н/о +25.7 +1.1 20 +24 +24 комфорт 1015.4 1002.8
09 24.04 ЮВ 2 н/о н/о +21.6 +4.2 32 +22 +22 комфорт 1015.7 1003.1
10 24.04 Ю 2 н/о н/о +20.0 +4.1 35 +21 +21 комфорт 1016.1 1003.5
11 24.04 В 2 н/о н/о +18.7 +4.1 38 +19 +19 1016.3 1003.7
12 24.04 штиль 0 н/о н/о +17.1 +6.3 49 +17 +17 1016.4 1003.8
13 24.04 штиль 0 н/о н/о +16.1 +5.4 49 +16 +16 1016.0 1003.4
14 24.04 ЮЗ 2 н/о н/о +15.2 +4.0 47 +15 +15 1015.7 1003.1 +30.2
15 24.04 ЮЗ 1 н/о н/о +13.9 +5.3 56 +14 +14 1015.5 1002.9
16 24.04 штиль 0 н/о н/о +13.1 +6.2 63 +13 +13 1015.2 1002.6
17 24.04 штиль 0 н/о н/о +13.0 +5.7 61 +13 +13 1014.9 1002.3
18 24.04 ЮВ 2 н/о н/о +13.3 +5.2 58 +13 +13 1014.5 1001.9
19 24.04 Ю 2 н/о н/о +12.4 +4.9 60 +12 +12 1014.7 1002.1
20 24.04 Ю 1 н/о н/о +11.0 +5.5 69 +12 +12 1015.0 1002.4
21 24.04 штиль 0 н/о н/о +21.1 +5.2 35 +22 +22 комфорт 1015.3 1002.7
22 24.04 Ю 2 н/о н/о +17.6 +6.8 49 +18 +18 1015.7 1003.1
23 24.04 Ю 2 н/о н/о +22.8 +4.8 31 +23 +23 комфорт 1015.9 1003.3
00 25.04 Ю 4 н/о н/о +26.3 +4.1 24 +25 +25 комфорт 1016.1 1003.5
01 25.04 ЮЗ 3 н/о н/о +28.2 +4.5 22 +27 +27 жарко 1015.6 1003.0
02 25.04 Ю 3 н/о н/о +29.0 +4.5 21 +27 +27 жарко 1014.8 1002.2 +10.7
03 25.04 Ю 3 н/о н/о +28.5 +3.4 20 +27 +27 жарко 1013.9 1001.3
04 25.04 ЮЗ 4 н/о н/о +29.3 +4.0 20 +27 +27 жарко 1013.0 1000.5
05 25.04 ЮЗ 4 н/о н/о +28.8 +3.6 20 +27 +27 жарко 1012.8 1000.3
06 25.04 З 4 н/о н/о +29.1 +3.1 19 +27 +27 жарко 1012.8 1000.3
07 25.04 ЮЗ 3 н/о н/о +29.8 +2.9 18 +28 +28 жарко 1012.8 1000.3
08 25.04 З 3 н/о н/о +27.2 +3.0 21 +26 +26 жарко 1013.3 1000.8
09 25.04 З 3 н/о н/о +24.2 +2.9 25 +23 +23 комфорт 1014.0 1001.4
10 25.04 ЮЗ 3 н/о н/о +23.3 +2.7 26 +23 +23 комфорт 1014.6 1002.0
11 25.04 ЮЗ 5 н/о н/о +24.5 +3.2 25 +24 +24 комфорт 1015.1 1002.5
12 25.04 Ю 5 н/о н/о +24.4 +4.2 27 +24 +24 комфорт 1015.5 1002.9
13 25.04 Ю 5 н/о н/о +23.7 +5.1 30 +24 +24 комфорт 1015.6 1003.0
14 25.04 Ю 4 н/о н/о +22.3 +4.8 32 +23 +23 комфорт 1015.6 1003.0 +30.2
15 25.04 Ю 3 н/о н/о +21.8 +5.3 34 +22 +22 комфорт 1015.1 1002.5
16 25.04 ЮЗ 3 н/о н/о +20.8 +5.6 37 +22 +22 комфорт 1015.0 1002.4
17 25.04 ЮЗ 3 н/о н/о +18.9 +5.7 42 +20 +20 1015.0 1002.4
18 25.04 З 3 н/о н/о +17.2 +6.4 49 +17 +17 1015.1 1002.5
19 25.04 ЮЗ 3 н/о н/о +16.6 +6.7 52 +17 +17 1015.8 1003.2

 

Местоположение метеостанции Bourke Airport Aws (Новый Южный Уэльс, Австралия): широта -30.03 долгота 145.95 высота над уровнем моря 108 м.

В архиве по умолчанию представлена погода в Bourke Airport Aws за последнюю неделю. Архивные данные за месяц целиком и за предыдущие месяцы, начиная с января 2011 года, Вы можете получить, выбрав интересующий диапазон дат из раскрывающегося списка и нажав кнопку "Ввод!".


*Определитесь, кто Вы:
робот инопланетянин человек

Внимание! Время в таблицах - всемирное. Для получения местного времени необходимо прибавить поправку, которая в Bourke Airport Aws равна 10 ч.

Смотрите также архив погоды в соседних городах и на ближайших метеорологических станциях:

Погода в Cobar Mo (Новый Южный Уэльс, Австралия) (162 км)
Погода в Cobar Airport Aws (Новый Южный Уэльс, Австралия) (167 км)
Погода в Walgett Airport Aws (Новый Южный Уэльс, Австралия) (209 км)
Погода в Coonamble Airport (Новый Южный Уэльс, Австралия) (256 км)
Погода в Trangie Research Stn (Новый Южный Уэльс, Австралия) (289 км)
Погода в White Cliffs Aws (Новый Южный Уэльс, Австралия) (291 км)
Погода в Wilcannia Aerodrome (Новый Южный Уэльс, Австралия) (296 км)
Погода в Thargomindah Airport (Квинсленд, Австралия) (309 км)
Погода в St George Airport (Квинсленд, Австралия) (339 км)
Погода в Dubbo Airport Aws (Новый Южный Уэльс, Австралия) (347 км)

Пояснения к столбцам:

Ветер - указаны скорость ветра в м/с - средняя за 10 мин, порывы в срок и между сроками (в фигурных скобках) и направление, откуда дует ветер: С - северный, СВ - северо-восточный, В - восточный, ЮВ - юго-восточный, Ю - южный, ЮЗ - юго-западный, З - западный, СЗ - северо-западный.
Видимость - горизонтальная дальность видимости в метрах или километрах. При видимости от 1 до 10 км при отсутствии осадков обычно наблюдается дымка, при ухудшении видимости до 1 км и менее - туман. В сухую погоду видимость может ухудшаться дымом, пылью или мглою.
Явления - указаны атмосферные явления, наблюдавшиеся в срок или в последний час перед сроком; фигурными скобками обозначены явления, наблюдавшиеся между сроками (за 1-3 часа до срока); квадратными скобками обозначены град или гололедные отложения с указанием их диаметра в мм.
Облачность - указаны через наклонную черту общая и нижняя облачность в баллах и высота нижней границы облаков в метрах; квадратными скобками обозначены формы облаков: Ci - перистые, Cs - перисто-слоистые, Cc - перисто-кучевые, Ac - высококучевые, As - высокослоистые, Sc - слоисто-кучевые, Ns - слоисто-дождевые, Cu - кучевые, Cb - кучево-дождевые. Подробнее классификацию облаков см. в Атласе облаков (PDF).
T - Температура воздуха - температура, измеренная на высоте 2 м над землей.
Td - Температура точки росы - температура, при понижении до которой содержащийся в воздухе водяной пар достигнет насыщения.
f - Относительная влажность воздуха - влажноcть воздуха, измеренная на высоте 2 м над землей.
Te - Эффективная температура - температура, которую ощущает одетый по сезону человек в тени. Характеристика душности погоды. При расчете учитывается влияние влажности воздуха и скорости ветра на теплоощущения человека.
Tes - Эффективная температура на солнце - температура, которую ощущает человек, с поправкой на солнечный нагрев. Характеристика знойности погоды. Зависит от высоты солнца над горизонтом, облачности и скорости ветра. Ночью, в пасмурную погоду, а также при ветре 12 м/с и более поправка равна нулю.
P - Атмосферное давление - приведенное к уровню моря атмосферное давление.
Po - Атмосферное давление - измеренное на уровне метеостанции атмосферное давление.
Tmin - Минимальная температура - минимум температуры воздуха на высоте 2 м над землей.
Tmax - Максимальная температура - максимум температуры воздуха на высоте 2 м над землей.
R - Количество осадков - Количество выпавших осадков за период времени, мм. При наведении курсора мыши на число - период времени, за который выпало указанное количество осадков.
R24 - Количество осадков - Количество выпавших осадков за 24 часа, мм.
S - Снежный покров - Высота снежного покрова, см. При наведении курсора мыши на число - состояние снежного покрова и степень покрытия местности в баллах.